AirNav   ATP
 
 1445 users online  

66TS KHOU-TV Heliport
Houston, Texas, USA

GOING TO HOUSTON?


FAA INFORMATION EFFECTIVE 09 NOVEMBER 2017

Location

FAA Identifier: 66TS
Lat/Long: 29-45-37.8210N / 095-23-14.7790W
29-45.630350N / 095-23.246317W
29.7605058 / -95.3874386
(estimated)
Elevation: 70 ft. / 21 m (estimated)
Variation: 06E (1985)
From city: 1 mile W of HOUSTON, TX
Time zone: UTC -6 (UTC -5 during Daylight Saving Time)
Zip code: 77019

Heliport Operations

Heliport use: Private use. Permission required prior to landing
Activation date: 02/1987
Control tower: no
ARTCC: HOUSTON CENTER
FSS: MONTGOMERY COUNTY FLIGHT SERVICE STATION
FOR FP FILING CALL CXO FSS 1-800-833-5602.
Attendance: CONTINUOUS
Wind indicator: yes
Segmented circle: no
Lights: ACTVT PERIMETER LGTS - 122.85.

Heliport Communications

WX ASOS at HOU (9 nm SE): PHONE 713-847-1462
WX ASOS at IAH (14 nm N): PHONE 281-443-6397
WX AWOS-3 at AXH (16 nm S): 123.625 (281-431-6572)
WX ASOS at LVJ (16 nm SE): 118.525 (281-992-1853)
WX ASOS at SGR (16 nm SW): 118.125 (281-242-7605)

Nearby radio navigation aids

VOR radial/distance  VOR name  Freq  Var
HUBr312/8.5HOBBY VOR/DME117.1005E
IAHr185/12.0HUMBLE VORTAC116.6005E
MHFr284/35.8TRINITY VOR/DME113.6007E

 
NDB name  Hdg/Dist  Freq  Var  ID
NIXIN208/16.632605EBVP -... ...- .--.
SANJAC283/17.434705EJPA .--- .--. .-

Heliport Services

Runway Information

Helipad H1

Dimensions: 50 x 50 ft. / 15 x 15 m
Surface: concrete
ROOFTOP.
Runway edge lights: PAD HAS PERIMETER LIGHTS/FLOODLIGHTS.
Operational restrictions: INGRESS/EGRESS 270 DEGREES AND 090 DEGREES.
Traffic pattern: leftleft

Heliport Ownership and Management from official FAA records

Ownership: Privately-owned
Owner: BELO/GULF TV BROADCASTING
1945 ALLEN PARKWAY
HOUSTON, TX 77109
Phone 713-526-1111
Manager: FRANK DAVIS
1945 ALLEN PARKWAY
HOUSTON, TX 77109
Phone 713-526-1111

Heliport Operational Statistics

Aircraft based on the field: 1
Helicopters: 1
    

Additional Remarks

A52-H1 40' FLAG POLES 100'W; 170' BLDG 150' EAST; 170' BLDG/TOWER 150' SOUTH.

Instrument Procedures

There are no published instrument procedures at 66TS.

Some nearby airports with instrument procedures:

KHOU - William P Hobby Airport (9 nm SE)
KIAH - George Bush Intercontinental/Houston Airport (14 nm N)
KEFD - Ellington Airport (15 nm SE)
KIWS - West Houston Airport (15 nm W)
KAXH - Houston Southwest Airport (16 nm S)
KLVJ - Pearland Regional Airport (16 nm SE)
KSGR - Sugar Land Regional Airport (16 nm SW)
T41 - La Porte Municipal Airport (18 nm E)
 
Loc | Ops | Rwys | IFR | FBO | Links
Com | Nav | Svcs | Stats | Notes


 
Area around 66TS (KHOU-TV Heliport)
 
Road maps at: MapQuest Bing Google
 
Aerial photo
No photo
 
Sectional chart

 
Airport distance calculator
Flying to KHOU-TV Heliport? Find the distance to fly.

From to 66TS

Sunrise and sunset
Times for 20-Nov-2017
 Local
(UTC-6)
 Zulu
(UTC)
Morning civil twilight06:2612:26
Sunrise06:5112:51
Sunset17:2323:23
Evening civil twilight17:4923:49

Current date and time
Zulu (UTC)  20-Nov-2017 20:43:50
Local (UTC-6)  20-Nov-2017 14:43:50
 
METAR
KHOU 
9nm SE 
201953Z 11008KT 10SM FEW050 BKN220 19/08 A3012 RMK AO2 SLP204 T01890078
KIAH 
14nm N 
201953Z 12009KT 10SM FEW050 FEW180 SCT250 19/07 A3012 RMK AO2 SLP200 T01940067
KEFD 
15nm SE 
201950Z 11008KT 10SM FEW050 BKN220 19/07 A3014
KAXH 
16nm S 
202015Z AUTO 12005KT 10SM CLR 19/08 A3011 RMK AO2 T01930084
KSGR 
16nm SW 
201953Z 11006KT 10SM FEW049 21/07 A3011 RMK AO2 SLP196 T02060072
KLVJ 
16nm SE 
201953Z AUTO 14007KT 10SM CLR 20/08 A3014 RMK AO2 SLP204 T02000078
TAF
KHOU 
9nm SE 
201730Z 2018/2118 09008KT P6SM FEW150 BKN250 FM210300 17002KT P6SM SCT025 FM211400 15005KT P6SM SCT030 BKN040
KIAH 
14nm N 
201730Z 2018/2124 12008KT P6SM SCT150 BKN250 FM210300 14002KT P6SM SCT025 FM211600 17007KT P6SM SCT020 BKN030 FM211800 16006KT P6SM BKN050
KEFD 
15nm SE 
201200Z 2012/2118 03006KT 9999 FEW150 BKN250 QNH2999INS BECMG 2100/2101 22009KT 9999 BKN025 QNH2990INS TEMPO 2114/2118 24010G15KT TX19/2018Z TN09/2012Z
KSGR 
16nm SW 
201730Z 2018/2118 09007KT P6SM FEW150 BKN250 FM210300 VRB02KT P6SM SCT025 FM211100 11002KT 6SM BR SCT025 BKN035 FM211500 15006KT P6SM SCT030 BKN040
NOTAMs
Click for the latest NOTAMs
NOTAMs are issued by the DoD/FAA and will open in a separate window not controlled by AirNav.

 

 
 

Would you like to see your business listed on this page?

 If your business provides an interesting product or service to pilots, flight crews, aircraft, or users of the KHOU-TV Heliport, you should consider listing it here.  To start the listing process, click on the button below
 
Add a business
 

Other Pages about KHOU-TV Heliport

Update a link
 
Copyright © AirNav, LLC. All rights reserved. Privacy Policy  Contact